Tracking 27124 objects as of 31-Mar-2023
HD Live streaming from Space Station
objects crossing your sky now

COSMOS 970 DEB

Track COSMOS 970 DEB now!
10-day predictions


NORAD ID: 13504
Int'l Code: 1977-121BB
Perigee: 838.2 km
Apogee: 1,124.0 km
Inclination: 66.1 °
Period: 104.6 minutes
Semi major axis: 7352 km
RCS: 0.036 m2 (small)
Launch date: December 21, 1977
Source: Commonwealth of Independent States (former USSR) (CIS)
Launch site: TYURATAM MISSILE AND SPACE COMPLEX (TTMTR)

Note: This is SATELLITE DEBRIS
Your satellite tracking list
Your tracking list is empty




NASA's NSSDC Master Catalog

Two Line Element Set (TLE):
1 13504U 77121BB  23089.47453819  .00000085  00000-0  14390-3 0  9997
2 13504  66.1145 106.6540 0194348  55.6956  91.5094 13.77174005264280
Source of the keplerian elements: AFSPC